FW6744 Weather Reports


time (UTC)temp
C
wind
direction
speed
KPH
gust
KPH
rain 1hr
cm
rain 24hr
cm
rain mn
cm
humidity
%
barometer
mb
20260906184009 27 46 0.0 1.6 0.00 0.03 0.00 64 1010.3
20260906183245 27 51 0.0 1.6 0.00 0.03 0.00 64 1010.4
20260906182743 27 51 0.0 1.6 0.00 0.05 0.00 62 1010.4
20260906182241 27 140 0.0 4.8 0.00 0.08 0.00 64 1010.5
20260906181743 27 37 1.6 4.8 0.00 0.10 0.00 62 1010.6
20260906181241 28 39 1.6 6.4 0.00 0.10 0.00 60 1010.5
20260906180739 28 36 1.6 6.4 0.00 0.10 0.00 56 1010.4
20260906180236 28 41 0.0 3.2 0.00 0.10 0.00 64 1010.4
20260906180005 27 37 0.0 3.2 0.00 0.10 0.00 60 1010.4
20260906175233 28 226 0.0 1.6 0.00 0.10 0.00 61 1010.4
20260906174728 28 37 0.0 1.6 0.00 0.10 0.00 63 1010.4
20260906174222 28 37 0.0 3.2 0.00 0.10 0.00 62 1010.4
20260906173716 27 37 0.0 4.8 0.00 0.10 0.00 61 1010.4
20260906173209 27 27 1.6 6.4 0.00 0.10 0.00 63 1010.4
20260906172704 27 27 1.6 6.4 0.00 0.10 0.00 61 1010.4
20260906172158 27 42 0.0 3.2 0.00 0.10 0.00 64 1010.5
20260906171652 27 43 1.6 9.7 0.00 0.10 0.00 61 1010.6
20260906171146 27 43 3.2 9.7 0.00 0.10 0.00 58 1010.6
20260906170640 27 29 1.6 8.0 0.00 0.10 0.00 58 1010.6
20260906170134 27 36 1.6 6.4 0.00 0.10 0.00 60 1010.6
20260906165627 27 28 1.6 6.4 0.00 0.13 0.00 61 1010.6
20260906165119 27 108 1.6 6.4 0.00 0.13 0.00 62 1010.7
20260906164618 27 23 1.6 6.4 0.00 0.18 0.00 61 1010.7
20260906164121 27 15 1.6 4.8 0.00 0.28 0.00 64 1010.7
20260906163621 27 226 1.6 4.8 0.00 0.56 0.00 67 1010.8
20260906163121 26 41 1.6 4.8 0.00 0.94 0.00 67 1010.8
20260906162621 26 38 1.6 4.8 0.00 1.17 0.00 70 1010.9
20260906162119 26 35 1.6 4.8 0.00 1.24 0.00 70 1010.9
20260906161619 26 39 0.0 4.8 0.00 1.35 0.00 70 1010.9
20260906161118 26 38 0.0 4.8 0.00 1.35 0.00 70 1010.9
20260906160618 26 229 1.6 4.8 0.00 1.35 0.00 71 1011.0
20260906160118 25 277 1.6 4.8 0.00 1.35 0.00 70 1011.0
20260906155618 25 32 1.6 4.8 0.00 1.35 0.00 69 1011.0
20260906155118 25 33 1.6 4.8 0.00 1.35 0.00 69 1011.1
20260906154618 25 49 1.6 6.4 0.00 1.35 0.00 69 1011.2
20260906154118 25 58 1.6 6.4 0.00 1.35 0.00 73 1011.1
20260906153618 25 354 0.0 3.2 0.00 1.35 0.00 72 1011.2
20260906153117 24 34 0.0 3.2 0.00 1.35 0.00 74 1011.2
20260906152619 24 40 0.0 1.6 0.00 1.35 0.00 78 1011.1
20260906152118 24 40 0.0 0.0 0.00 1.35 0.00 77 1011.0
20260906151618 24 40 0.0 3.2 0.00 1.35 0.00 77 1011.0
20260906151343 24 34 0.0 3.2 0.00 1.35 0.00 75 1011.0
20260906150843 24 302 0.0 3.2 0.00 1.35 0.00 77 1011.0
20260906150118 23 40 0.0 3.2 0.00 1.35 0.00 78 1010.9
20260906145617 23 29 0.0 4.8 0.00 1.35 0.00 78 1010.9
20260906145119 23 30 0.0 4.8 0.00 1.35 0.00 79 1010.9
20260906144618 23 139 0.0 1.6 0.00 1.35 0.00 82 1010.9
20260906144117 23 114 0.0 3.2 0.00 1.35 0.00 84 1010.8
20260906143613 23 114 0.0 4.8 0.00 1.35 0.00 83 1010.9
20260906143114 23 36 0.0 4.8 0.00 1.35 0.00 82 1010.9
20260906142612 23 349 0.0 3.2 0.00 1.35 0.00 83 1010.9
20260906142115 23 33 0.0 3.2 0.00 1.35 0.00 84 1010.9
20260906141611 23 33 0.0 3.2 0.00 1.35 0.00 85 1010.8
20260906141325 22 25 0.0 3.2 0.00 1.35 0.00 86 1010.7
20260906141213 22 33 0.0 3.2 0.00 1.35 0.00 86 1010.7
20260906140113 22 31 0.0 1.6 0.00 1.35 0.00 87 1010.7
20260906135613 22 31 0.0 4.8 0.00 1.35 0.00 87 1010.7
20260906135113 22 30 0.0 4.8 0.00 1.35 0.00 87 1010.6
20260906134611 22 25 0.0 3.2 0.00 1.35 0.00 89 1010.6
20260906134109 21 22 0.0 3.2 0.00 1.35 0.00 91 1010.5
20260906133834 21 231 0.0 3.2 0.00 1.35 0.00 91 1010.4
20260906133109 21 70 0.0 1.6 0.00 1.35 0.00 91 1010.3
20260906132611 21 151 0.0 1.6 0.00 1.35 0.00 92 1010.4
20260906132107 21 221 0.0 0.0 0.00 1.35 0.00 92 1010.3
20260906131608 21 33 0.0 1.6 0.00 1.35 0.00 92 1010.3
20260906131108 21 33 0.0 1.6 0.00 1.35 0.00 91 1010.4
20260906130601 21 34 0.0 0.0 0.00 1.35 0.00 92 1010.3
20260906130054 21 34 0.0 1.6 0.00 1.35 0.00 91 1010.5
20260906125548 21 34 0.0 1.6 0.00 1.35 0.00 91 1010.5
20260906125042 21 34 0.0 1.6 0.00 1.35 0.00 91 1010.6
20260906125016 21 34 0.0 1.6 0.00 1.35 0.00 91 1010.6
20260906124030 21 33 0.0 1.6 0.00 1.35 0.00 91 1010.6
20260906123524 21 34 0.0 1.6 0.00 1.35 0.00 91 1010.6
20260906123018 21 34 0.0 1.6 0.00 1.35 0.00 91 1010.5
20260906122511 21 34 0.0 3.2 0.00 1.35 0.00 92 1010.3
20260906122005 21 37 0.0 1.6 0.00 1.35 0.00 92 1010.2
20260906121500 21 37 0.0 1.6 0.00 1.35 0.00 92 1010.1
20260906120954 21 37 1.6 3.2 0.00 1.35 0.00 93 1010.1
20260906120448 21 41 0.0 3.2 0.00 1.35 0.00 94 1010.0
20260906115942 20 155 0.0 0.0 0.00 1.35 0.00 95 1010.1
20260906115653 20 156 0.0 0.0 0.00 1.35 0.00 96 1010.1
20260906114930 20 156 0.0 0.0 0.00 1.35 0.00 96 1010.0
20260906114649 20 157 0.0 0.0 0.00 1.35 0.00 96 1009.9
20260906113918 20 156 0.0 0.0 0.00 1.35 0.00 96 1009.8
20260906113412 20 157 0.0 0.0 0.00 1.35 0.00 96 1009.7
20260906112905 20 157 0.0 0.0 0.00 1.35 0.00 96 1009.6
20260906112400 20 156 0.0 0.0 0.00 1.35 0.00 96 1009.6
20260906111854 20 157 0.0 0.0 0.00 1.35 0.00 96 1009.5
20260906111348 20 156 0.0 0.0 0.00 1.35 0.00 97 1009.4
20260906110842 20 156 0.0 0.0 0.00 1.35 0.00 97 1009.4
20260906110336 20 156 0.0 0.0 0.00 1.35 0.00 97 1009.3
20260906105830 20 157 0.0 0.0 0.00 1.35 0.00 97 1009.2
20260906105324 20 157 0.0 0.0 0.00 1.35 0.00 97 1009.2
20260906104819 21 157 0.0 0.0 0.00 1.35 0.00 97 1009.1
20260906104312 21 157 0.0 0.0 0.00 1.35 0.00 97 1009.1
20260906103806 21 156 0.0 0.0 0.00 1.35 0.00 97 1009.1
20260906103528 21 156 0.0 0.0 0.00 1.35 0.00 97 1009.1
20260906103247 21 156 0.0 0.0 0.00 1.35 0.00 97 1008.9
20260906103152 21 156 0.0 0.0 0.00 1.35 0.00 97 1009.0
20260906101741 21 156 0.0 0.0 0.00 1.35 0.00 97 1008.8
20260906101236 21 156 0.0 0.0 0.00 1.35 0.00 97 1008.7
20260906100730 21 156 0.0 0.0 0.00 1.35 0.00 98 1008.7
20260906100223 21 157 0.0 0.0 0.00 1.35 0.00 97 1008.5
20260906095939 21 156 0.0 0.0 0.00 1.35 0.00 98 1008.5
20260906095212 21 157 0.0 0.0 0.00 1.35 0.00 97 1008.4
20260906094706 21 156 0.0 0.0 0.00 1.35 0.00 97 1008.3
20260906094200 21 156 0.0 0.0 0.00 1.35 0.00 97 1008.4
20260906093654 21 156 0.0 0.0 0.00 1.35 0.00 98 1008.3
20260906093408 21 156 0.0 0.0 0.00 1.35 0.00 98 1008.3
20260906092642 21 156 0.0 0.0 0.00 1.35 0.00 98 1008.3
20260906092136 21 156 0.0 0.0 0.00 1.35 0.00 98 1008.2
20260906091630 21 156 0.0 0.0 0.00 1.35 0.00 98 1008.2
20260906091123 21 156 0.0 0.0 0.00 1.35 0.00 98 1008.1
20260906090618 21 156 0.0 0.0 0.00 1.35 0.00 98 1008.1
20260906090112 21 156 0.0 0.0 0.00 1.35 0.00 98 1008.1
20260906085810 21 157 0.0 0.0 0.00 1.35 0.00 98 1008.0
20260906085656 21 156 0.0 0.0 0.00 1.35 0.00 98 1008.1
20260906084554 21 156 0.0 0.0 0.00 1.35 0.00 98 1008.0
20260906084309 21 156 0.0 0.0 0.00 1.35 0.00 98 1008.0
20260906083542 21 156 0.0 0.0 0.00 1.35 0.00 98 1008.0
20260906083035 21 157 0.0 0.0 0.00 1.35 0.00 98 1008.0
20260906082747 22 156 0.0 0.0 0.00 1.35 0.00 98 1008.0
20260906082024 22 156 0.0 0.0 0.00 1.35 0.00 98 1008.0
20260906081518 22 156 0.0 0.0 0.00 1.35 0.00 98 1007.9
20260906081012 22 156 0.0 0.0 0.00 1.35 0.00 98 1007.9
20260906080506 22 156 0.0 0.0 0.00 1.35 0.00 98 1007.8
20260906075959 22 157 0.0 0.0 0.00 1.35 0.00 98 1007.8
20260906075454 22 156 0.0 0.0 0.00 1.35 0.00 98 1007.8
20260906074947 22 156 0.0 0.0 0.00 1.35 0.00 98 1007.7
20260906074442 22 156 0.0 0.0 0.00 1.35 0.00 98 1007.7
20260906073936 22 156 0.0 0.0 0.00 1.35 0.00 98 1007.7
20260906073430 22 156 0.0 0.0 0.00 1.35 0.00 98 1007.7
20260906072924 22 156 0.0 0.0 0.00 1.35 0.00 98 1007.6
20260906072418 22 156 0.0 0.0 0.00 1.35 0.00 98 1007.7
20260906071916 22 156 0.0 0.0 0.00 1.35 0.00 98 1007.6
20260906071638 22 156 0.0 0.0 0.00 1.35 0.00 98 1007.5
20260906070914 22 156 0.0 0.0 0.00 1.35 0.00 98 1007.6
20260906070413 22 156 0.0 0.0 0.00 1.35 0.00 98 1007.5
20260906065910 22 156 0.0 0.0 0.00 1.35 0.00 98 1007.5
20260906065409 22 156 0.0 0.0 0.00 1.35 0.00 98 1007.6
20260906064907 22 156 0.0 0.0 0.00 1.35 0.00 98 1007.6
20260906064406 22 156 0.0 0.0 0.00 1.35 0.00 98 1007.6
20260906063904 22 156 0.0 0.0 0.00 1.35 0.00 98 1007.7
20260906063402 22 156 0.0 0.0 0.00 1.35 0.00 98 1007.7
20260906062903 22 156 0.0 0.0 0.00 1.35 0.00 98 1007.7
20260906062403 22 156 0.0 0.0 0.00 1.35 0.00 98 1007.8
20260906061904 22 156 0.0 0.0 0.00 1.35 0.00 98 1007.8
20260906061628 22 156 0.0 0.0 0.00 1.35 0.00 97 1007.8
20260906060905 22 157 0.0 0.0 0.00 1.35 0.00 97 1007.8
20260906060633 22 156 0.0 0.0 0.00 1.35 0.00 97 1007.8
20260906060130 22 156 0.0 0.0 0.00 1.35 0.00 97 1007.8
20260906055407 22 157 0.0 0.0 0.00 1.35 0.00 97 1008.0
20260906055123 22 156 0.0 0.0 0.00 1.35 0.00 97 1008.0
20260906054403 22 156 0.0 0.0 0.00 1.35 0.00 97 1008.1
20260906053903 22 156 0.0 0.0 0.00 1.35 0.00 97 1008.0
20260906053402 22 156 0.0 0.0 0.00 1.35 0.00 97 1007.9
20260906052904 22 156 0.0 0.0 0.00 1.35 0.00 97 1008.0
20260906052403 22 156 0.0 0.0 0.00 1.35 0.00 97 1008.0
20260906051903 22 156 0.0 0.0 0.00 1.35 0.00 97 1008.2
20260906051403 22 156 0.0 0.0 0.00 1.35 0.00 97 1008.2
20260906050904 22 156 0.0 0.0 0.00 1.35 0.00 97 1008.2
20260906050403 22 157 0.0 0.0 0.00 1.35 0.00 97 1008.2
20260906045904 22 156 0.0 0.0 0.00 1.35 0.00 97 1008.0
20260906045402 22 157 0.0 0.0 0.00 1.35 0.00 97 1008.1
20260906044901 22 156 0.0 0.0 0.00 1.35 0.00 97 1008.2
20260906044355 22 156 0.0 0.0 0.00 1.35 0.00 97 1008.3
20260906043849 22 157 0.0 0.0 0.00 1.35 0.00 97 1008.3
20260906043343 22 156 0.0 0.0 0.00 1.35 0.00 97 1008.3
20260906042836 22 157 0.0 0.0 0.00 1.35 0.00 97 1008.3
20260906042331 22 157 0.0 0.0 0.00 1.35 0.00 97 1008.4
20260906041825 22 156 0.0 0.0 0.00 1.35 0.00 97 1008.5
20260906041319 22 156 0.0 0.0 0.00 1.35 0.00 97 1008.4
20260906040813 22 157 0.0 0.0 0.00 1.35 0.00 97 1008.2
20260906040530 22 156 0.0 0.0 0.00 1.35 0.00 97 1008.2
20260906040248 22 156 0.0 0.0 0.00 1.35 1.35 97 1008.2
20260906035306 22 156 0.0 0.0 0.00 1.35 1.35 97 1008.3
20260906034805 22 157 0.0 0.0 0.00 1.35 1.35 97 1008.3
20260906034753 22 156 0.0 0.0 0.00 1.35 1.35 97 1008.3
20260906033804 22 156 0.0 0.0 0.00 1.35 1.35 97 1008.3
20260906033521 22 156 0.0 0.0 0.00 1.35 1.35 97 1008.3
20260906032804 22 156 0.0 0.0 0.00 1.35 1.35 97 1008.3
20260906032301 22 156 0.0 0.0 0.00 1.35 1.35 97 1008.2
20260906031759 22 156 0.0 0.0 0.00 1.35 1.35 97 1008.2
20260906031256 22 156 0.0 0.0 0.00 1.35 1.35 97 1008.2
20260906030758 22 157 0.0 0.0 0.00 1.35 1.35 97 1008.2
20260906030257 22 156 0.0 0.0 0.00 1.35 1.35 97 1008.1
20260906025758 22 157 0.0 0.0 0.00 1.35 1.35 96 1008.2
20260906025257 22 156 0.0 0.0 0.00 1.35 1.35 96 1008.3
20260906024759 22 156 0.0 0.0 0.00 1.35 1.35 96 1008.2
20260906024516 22 156 0.0 0.0 0.00 1.35 1.35 96 1008.2
20260906023757 22 156 0.0 0.0 0.00 1.35 1.35 96 1008.3
20260906023301 22 157 0.0 0.0 0.00 1.35 1.35 96 1008.3
20260906022755 22 157 0.0 0.0 0.00 1.35 1.35 96 1008.3
20260906022249 22 156 0.0 0.0 0.00 1.35 1.35 96 1008.3
20260906021749 22 156 0.0 0.0 0.00 1.35 1.35 96 1008.2
20260906021248 22 156 0.0 0.0 0.00 1.35 1.35 96 1008.2
20260906020745 22 156 0.0 0.0 0.00 1.35 1.35 96 1008.2
20260906020242 22 156 0.0 0.0 0.00 1.35 1.35 96 1008.3
20260906015742 23 156 0.0 0.0 0.00 1.35 1.35 96 1008.3
20260906015244 23 156 0.0 0.0 0.00 1.35 1.35 96 1008.2
20260906015009 23 157 0.0 0.0 0.00 1.35 1.35 96 1008.3
20260906014244 23 156 0.0 0.0 0.00 1.35 1.35 96 1008.2
20260906013742 23 156 0.0 0.0 0.00 1.35 1.35 96 1008.1
20260906013244 23 156 0.0 0.0 0.00 1.35 1.35 96 1008.0
20260906012744 23 156 0.0 0.0 0.00 1.35 1.35 96 1008.0
20260906012244 23 156 0.0 0.0 0.00 1.35 1.35 96 1007.9
20260906011740 23 156 0.0 0.0 0.00 1.35 1.35 95 1008.0
20260906011238 23 156 0.0 0.0 0.00 1.35 1.35 95 1007.9
20260906010740 23 156 0.0 0.0 0.00 1.35 1.35 95 1007.9
20260906010239 23 156 0.0 0.0 0.00 1.35 1.35 95 1007.7
20260906005739 23 156 0.0 0.0 0.00 1.35 1.35 95 1007.5
20260906005239 23 157 0.0 0.0 0.00 1.35 1.35 95 1007.4
20260906004739 23 156 0.0 0.0 0.00 1.35 1.35 95 1007.3
20260906004239 23 156 0.0 0.0 0.00 1.35 1.35 95 1007.3
20260906004012 23 156 0.0 0.0 0.00 1.35 1.35 94 1007.3
20260906003236 23 156 0.0 0.0 0.00 1.35 1.35 94 1007.4
20260906002736 23 156 0.0 0.0 0.00 1.35 1.35 94 1007.3
20260906002235 23 157 0.0 0.0 0.00 1.35 1.35 94 1007.3
20260906001736 23 156 0.0 0.0 0.00 1.35 1.35 94 1007.3
20260906001235 23 156 0.0 0.0 0.00 1.35 1.35 94 1007.1
20260906000735 23 156 0.0 0.0 0.00 1.35 1.35 94 1006.9
20260906000234 23 156 0.0 0.0 0.00 1.35 1.35 93 1006.9
20260905235734 23 156 0.0 0.0 0.00 1.35 1.35 93 1006.8
20260905235235 23 156 0.0 0.0 0.00 1.35 1.35 93 1006.8
20260905234729 23 156 0.0 0.0 0.00 1.35 1.35 93 1006.7
20260905234223 23 156 0.0 0.0 0.00 1.35 1.35 93 1006.7
20260905233716 24 156 0.0 0.0 0.00 1.35 1.35 92 1006.7
20260905233211 24 156 0.0 0.0 0.00 1.35 1.35 92 1006.7
20260905232705 24 156 0.0 0.0 0.00 1.35 1.35 92 1006.5
20260905232158 24 156 0.0 0.0 0.00 1.37 1.35 91 1006.4
20260905231653 24 156 0.0 0.0 0.00 1.37 1.35 91 1006.4
20260905231147 24 156 0.0 0.0 0.00 1.37 1.35 91 1006.4
20260905230641 24 156 0.0 0.0 0.00 1.37 1.35 91 1006.8
20260905230401 24 156 0.0 0.0 0.00 1.37 1.35 90 1006.9
20260905225628 24 156 0.0 0.0 0.00 1.37 1.35 90 1007.1
20260905225123 25 156 0.0 0.0 0.00 1.37 1.35 90 1007.1
20260905224616 25 156 0.0 0.0 0.00 1.37 1.35 89 1006.9
20260905224111 25 156 0.0 0.0 0.00 1.37 1.35 90 1006.8
20260905223605 25 156 0.0 0.0 0.00 1.37 1.35 89 1006.9
20260905223059 25 156 0.0 0.0 0.00 1.37 1.35 89 1006.9
20260905222825 25 156 0.0 0.0 0.00 1.37 1.35 88 1006.9
20260905222047 25 156 0.0 0.0 0.00 1.42 1.35 88 1006.8
20260905221541 25 156 0.0 0.0 0.00 1.42 1.35 86 1006.8
20260905221035 25 156 0.0 0.0 0.00 1.45 1.35 85 1006.7
20260905220529 26 156 0.0 0.0 0.00 1.55 1.35 85 1006.7
20260905220023 26 157 0.0 0.0 0.00 1.80 1.35 84 1006.6
20260905215516 26 158 0.0 0.0 0.00 1.88 1.35 82 1006.6
20260905215011 27 162 0.0 0.0 0.00 1.88 1.35 81 1006.6
20260905214505 27 166 0.0 0.0 0.00 1.88 1.35 82 1006.7
20260905214223 27 168 0.0 0.0 0.00 1.88 1.35 79 1006.7
20260905213452 27 168 0.0 0.0 0.00 1.88 1.35 81 1006.6
20260905212947 27 113 0.0 1.6 0.00 1.88 1.35 81 1006.6
20260905212440 27 113 0.0 1.6 0.00 1.88 1.35 81 1006.7
20260905212158 27 92 0.0 1.6 0.00 1.88 1.35 83 1006.7
20260905211428 27 146 0.0 3.2 0.00 1.88 1.35 82 1006.7
20260905210923 27 216 0.0 1.6 0.00 1.88 1.35 81 1006.8
20260905210416 27 216 0.0 1.6 0.00 1.88 1.35 84 1006.9
20260905205911 26 200 0.0 0.0 0.00 1.88 1.35 86 1006.8
20260905205405 26 51 0.0 0.0 0.00 1.88 1.35 88 1006.8
20260905204859 26 50 0.0 0.0 0.00 1.88 1.35 90 1006.9
20260905204620 26 157 0.0 0.0 0.00 1.88 1.35 90 1007.0
20260905203847 26 182 0.0 0.0 0.00 1.88 1.35 92 1006.9
20260905203832 25 182 0.0 0.0 0.00 1.88 1.35 94 1006.9
20260905202835 25 182 0.0 0.0 0.00 1.88 1.35 94 1006.9
20260905202814 25 182 0.0 0.0 0.00 1.88 1.35 93 1006.8
20260905201823 25 182 0.0 0.0 0.00 1.88 1.35 94 1006.6
20260905201317 25 214 0.0 0.0 0.00 1.88 1.35 96 1006.6
20260905200813 25 214 0.0 0.0 0.00 1.88 1.35 97 1006.5
20260905200314 24 214 0.0 0.0 0.03 1.88 1.35 97 1006.6
20260905195814 24 214 0.0 0.0 0.03 1.88 1.35 97 1006.7
20260905195535 24 214 0.0 0.0 0.03 1.88 1.35 97 1006.7
20260905194814 23 214 0.0 0.0 0.03 1.88 1.35 97 1006.8
20260905194314 23 214 0.0 0.0 0.03 1.88 1.35 97 1006.9
20260905194033 23 214 0.0 0.0 0.03 1.88 1.35 97 1007.1
20260905193313 23 214 0.0 0.0 0.03 1.88 1.35 97 1007.2
20260905192812 23 214 0.0 0.0 0.05 1.88 1.35 96 1007.4
20260905192312 23 214 0.0 0.0 0.08 1.88 1.35 96 1007.4
20260905191812 23 214 0.0 0.0 0.10 1.88 1.35 96 1007.4
20260905191312 23 214 0.0 0.0 0.10 1.88 1.35 97 1007.4
20260905190812 23 214 0.0 0.0 0.10 1.88 1.35 96 1007.6
20260905190532 23 214 0.0 0.0 0.08 1.85 1.32 96 1007.7
20260905185812 23 214 0.0 0.0 0.08 1.85 1.32 96 1007.8
20260905185311 23 214 0.0 0.0 0.08 1.85 1.32 96 1007.9
20260905184813 23 214 0.0 0.0 0.08 1.85 1.32 96 1007.8
20260905184307 23 214 0.0 0.0 0.08 1.85 1.32 96 1007.6